www.pogodaiklimat.ru

Погода и климат >> Архив погоды >> Россия >> Краснодарский край >> Туапсе


АРХИВ ПОГОДЫ в Туапсе

Время (UTC), дата Ветер
(напр.,м/с)
 
Видим.   Явления Облачность Т
(С)
Тd
(С)
f
(%)
Тe
(С)
Тes
(С)
Комфортность P
(гПа)
Po
(гПа)
Тmin
(С)
Tmax
(С)
R
(мм)
R24
(мм)
S
(см)
06 19.08 С 2 20 км {ливн. осадки} 10/8 600 м
[Cb cap Ci]
+21.4 +18.5 84 +26 +27 душно 1014.0 1006.9
09 19.08 ЮЗ 1 20 км 8/4 1000 м
[Cu Sc Ci fib]
+28.9 +22.0 66 +37 +47 очень
душно
1014.0 1007.1
12 19.08 ЮЗ 1 20 км н/о +29.8 +21.4 61 +38 +38 очень
душно
1013.8 1006.9
15 19.08 З 1 20 км 3/3 1000 м
[Cu med, cong]
+27.6 +20.8 66 +34 +35 очень
душно
1013.3 1006.3 +30.4 2
18 19.08 штиль 0 10 км ясно +26.2 +20.1 69 +32 +32 очень
душно
1014.2 1007.2
21 19.08 штиль 0 10 км 4/4 1000 м
[Sc]
+24.7 +20.5 77 +31 +31 очень
душно
1015.3 1008.2
00 20.08 СВ 2 10 км 3/3 1000 м
[Sc]
+24.6 +20.1 76 +30 +30 очень
душно
1014.6 1007.6
03 20.08 СВ 2 20 км 8/4 1000 м
[Cu Sc Ac trans Ci fib]
+24.2 +19.9 77 +30 +30 очень
душно
1015.0 1007.9 +24.1
06 20.08 ЮЗ 1 20 км 3/3 1000 м
[Cu med, cong Ci sp]
+28.1 +21.4 67 +36 +42 очень
душно
1015.6 1008.6
09 20.08 ЮЗ 2 20 км 8/4 1000 м
[Cu med, cong Ci sp]
+29.2 +21.8 64 +37 +45 очень
душно
1015.4 1008.5
12 20.08 ЮЗ 2 20 км {гроза, ливн. осадки} 10/6 600 м
[Cb cap Ac trans Ci sp]
+28.1 +22.3 71 +37 +39 очень
душно
1014.8 1007.8
15 20.08 ЮЗ 2 20 км 3/3 1000 м
[Cu Sc]
+26.8 +21.8 74 +34 +35 очень
душно
1014.3 1007.3 +29.9 0.0
18 20.08 С 2 10 км 8/8 600 м
[Cb cap]
+25.3 +21.3 79 +32 +32 очень
душно
1015.3 1008.3
21 20.08 СВ 1 10 км 8/4 1000 м
[Cu Sc Ci sp]
+24.1 +21.1 83 +30 +30 очень
душно
1015.3 1008.2
00 21.08 СВ 2 10 км 8/4 1000 м
[Cu Sc Ci sp]
+23.1 +20.1 83 +30 +30 очень
душно
1014.6 1007.5
03 21.08 СВ 1 20 км {ливн. осадки} 8/5 600 м
[Cb cap Ci sp]
+23.1 +20.0 83 +30 +30 очень
душно
1014.0 1006.9 +22.9 0.0
06 21.08 ЮЗ 1 20 км {ливн. осадки} 3/3 1000 м
[Cb cap Ac trans]
+27.6 +20.9 67 +35 +41 очень
душно
1013.5 1006.5
09 21.08 ЮЗ 2 20 км 9/3 1000 м
[Cu med, cong Ac trans]
+29.7 +21.5 61 +38 +43 очень
душно
1012.2 1005.3
12 21.08 З 2 20 км 6/3 1000 м
[Cu med, cong Ac trans]
+29.3 +22.2 66 +38 +43 очень
душно
1011.2 1004.3
15 21.08 З 2 20 км 10/3 1000 м
[Sc Ac trans Ci fib]
+27.9 +22.1 71 +36 +37 очень
душно
1008.8 1001.9 +31.3
18 21.08 С 2
{10}
10 км 8/3 1000 м
[Sc Ac trans Ci fib]
+26.4 +21.9 76 +34 +34 очень
душно
1008.7 1001.7
21 21.08 В 3 10 км гроза без осадков {ливн. осадки} 9/6 600 м
[Cb cap Ac trans Ci fib]
+25.9 +23.2 85 +35 +35 очень
душно
1010.1 1003.1
00 22.08 В 2
{12}
4000 м гроза, ливневой дождь 10/8 600 м
[Cb cap Ac trans Ci fib]
+25.4 +23.0 87 +34 +34 очень
душно
1010.2 1003.2
03 22.08 С 1 20 км в посл. час гроза 9/6 1000 м
[Cb cap Ac trans Ci fib]
+24.8 +22.1 85 +32 +32 очень
душно
1010.2 1003.2 +24.8 1
06 22.08 В 1 20 км {гроза, ливн. осадки} 8/4 1000 м
[Cb cap Ac trans Ci fib]
+27.4 +22.0 72 +35 +39 очень
душно
1010.6 1003.7 +24.4
09 22.08 Ю 1 20 км {ливн. осадки} 10/8 1000 м
[Cb cap Ac trans Ci fib]
+27.5 +22.1 72 +36 +37 очень
душно
1010.3 1003.4
12 22.08 ЮЗ 3 20 км {ливн. осадки} 10/8
[Cb cap Ac trans Ci]
+26.7 +23.3 82 +36 +37 очень
душно
1010.8 1003.8
15 22.08 З 2 20 км 10/8 1000 м
[Cb cap Ac trans Ci]
+26.1 +22.6 81 +34 +34 очень
душно
1010.2 1003.2 +30.7 0.0
18 22.08 З 1 10 км 10/6 1000 м
[Cb cap Ci]
+25.0 +22.6 87 +33 +33 очень
душно
1011.3 1004.3
21 22.08 СВ 1 10 км 10/4 1000 м
[Sc Ci]
+24.3 +22.0 87 +31 +31 очень
душно
1010.8 1003.8
00 23.08 С 1 10 км зарница {гроза} 10/8 1000 м
[Cb cap Ci]
+24.7 +21.4 82 +31 +31 очень
душно
1011.5 1004.5
03 23.08 В 2 20 км 10/8 1000 м
[Cb cap Ci]
+24.8 +21.1 80 +31 +31 очень
душно
1010.9 1003.9 +23.7
06 23.08 З 1 20 км 10/8 1000 м
[Cb cap Ac trans Ci fib]
+25.7 +22.3 82 +34 +34 очень
душно
1011.2 1004.2
09 23.08 Ю 1 20 км 9/6 1000 м
[Cu med, cong Ac trans Ci fib]
+29.1 +22.8 69 +39 +43 очень
душно
1012.3 1005.4
12 23.08 ЮЗ 2 20 км 10/1 1000 м
[Cu med, cong Ac trans Ci fib]
+29.5 +23.0 68 +39 +44 очень
душно
1011.8 1004.9
15 23.08 ЮЗ 1 20 км 10/1 1000 м
[Cu med, cong Ac trans Ci fib]
+26.8 +22.5 77 +35 +36 очень
душно
1012.0 1005.0 +31.0
18 23.08 СВ 1 10 км ясно +24.7 +21.7 83 +32 +32 очень
душно
1011.8 1004.8
21 23.08 В 2 10 км 6/6 1000 м
[Sc]
+25.3 +21.8 81 +33 +33 очень
душно
1012.9 1005.9
00 24.08 СВ 1 10 км ясно +24.2 +20.9 82 +30 +30 очень
душно
1012.8 1005.8
03 24.08 СВ 2 20 км 10/5 1000 м
[Cb cap Ac trans Ci fib]
+23.4 +20.5 84 +31 +31 очень
душно
1013.4 1006.3 +22.9
06 24.08 СВ 1 20 км {ливн. осадки} 10/8 1000 м
[Cb cap Ac trans Ci sp]
+26.3 +21.4 74 +33 +34 очень
душно
1013.8 1006.8
09 24.08 Ю 1 20 км 10/8 600 м
[Cb cap Ac trans Ci sp]
+26.6 +22.1 76 +34 +36 очень
душно
1014.0 1007.0
12 24.08 ЮЗ 1 20 км 10/8 600 м
[Cb cap Ac trans Ci sp]
+28.0 +21.7 69 +36 +37 очень
душно
1014.9 1007.9
15 24.08 ЮЗ 1 20 км 9/5 1000 м
[Cb cap Ac trans Ci sp]
+25.7 +21.1 76 +32 +33 очень
душно
1014.7 1007.7 +30.4 0.0
18 24.08 СВ 1 10 км 9/5 600 м
[Cb cap Ci sp]
+24.7 +21.8 84 +32 +32 очень
душно
1015.1 1008.1
21 24.08 В 1 10 км 10/6 600 м
[Cb cap Ac trans Ci sp]
+24.8 +21.1 80 +31 +31 очень
душно
1015.7 1008.7
00 25.08 СВ 2 10 км 4/4 1000 м
[Cu Sc]
+23.3 +20.6 85 +31 +31 очень
душно
1015.1 1008.0
03 25.08 СВ 1 20 км 10/5 1000 м
[Cb cap Ac trans Ci sp]
+22.9 +20.4 86 +30 +30 очень
душно
1015.3 1008.2 +22.4
06 25.08 Ю 1 20 км 6/3 1000 м
[Cu Sc Ac trans Ci fib]
+26.7 +21.5 73 +34 +39 очень
душно
1015.6 1008.6
09 25.08 ЮЗ 2 20 км 4/4 1000 м
[Cu Sc]
+29.6 +21.3 61 +37 +46 очень
душно
1015.5 1008.6
12 25.08 ЮЗ 1 20 км 6/4 1000 м
[Cu Sc Ac trans]
+30.6 +22.7 63 +40 +46 очень
душно
1015.2 1008.3
15 25.08 З 2 20 км 3/3 1000 м
[Cu med, cong]
+27.0 +22.3 75 +35 +36 очень
душно
1015.1 1008.1 +31.2
18 25.08 СВ 1 10 км ясно +24.6 +21.8 84 +31 +31 очень
душно
1015.7 1008.6
21 25.08 СВ 2 10 км ясно +26.5 +14.5 48 +29 +29 жарко 1015.0 1008.0
00 26.08 СВ 1 10 км ясно +24.9 +14.8 53 +28 +28 жарко 1015.1 1008.0
03 26.08 СВ 2 20 км ясно +24.0 +14.4 55 +27 +27 жарко 1015.0 1007.9 +23.9

 

Местоположение метеостанции Туапсе (Краснодарский край, Россия): широта 44.10 долгота 39.07 высота над уровнем моря 62 м.

В архиве по умолчанию представлена погода в Туапсе за последнюю неделю. Архивные данные за месяц целиком и за предыдущие месяцы, начиная с января 2011 года, Вы можете получить, выбрав интересующий диапазон дат из раскрывающегося списка и нажав кнопку "Ввод!".


*Определитесь, кто Вы:
робот инопланетянин человек

Внимание! Время в таблицах - всемирное. Для получения местного времени необходимо прибавить поправку, которая равна 3 ч.

Смотрите также архив погоды в соседних городах и на ближайших метеорологических станциях:

Погода в Магри (Краснодарский край, Россия) (11 км)
Погода в Горном (Краснодарский край, Россия) (26 км)
Погода в Лазаревском (Краснодарский край, Россия) (30 км)
Погода в Джубге (Краснодарский край, Россия) (38 км)
Погода в Кичмае (Краснодарский край, Россия) (46 км)
Погода в Солох Ауле (Краснодарский край, Россия) (56 км)
Погода в Горячем Ключе (Краснодарский край, Россия) (59 км)
Погода в Сочи (Краснодарский край, Россия) (81 км)
Погода в Гузерипле (Адыгея, Россия) (85 км)
Погода в Шунтуке (Адыгея, Россия) (93 км)

Пояснения к столбцам:

Ветер - указаны скорость ветра в м/с - средняя за 10 мин, порывы в срок и между сроками (в фигурных скобках) и направление, откуда дует ветер: С - северный, СВ - северо-восточный, В - восточный, ЮВ - юго-восточный, Ю - южный, ЮЗ - юго-западный, З - западный, СЗ - северо-западный.
Видимость - горизонтальная дальность видимости в метрах или километрах. При видимости от 1 до 10 км при отсутствии осадков обычно наблюдается дымка, при ухудшении видимости до 1 км и менее - туман. В сухую погоду видимость может ухудшаться дымом, пылью или мглою.
Явления - указаны атмосферные явления, наблюдавшиеся в срок или в последний час перед сроком; фигурными скобками обозначены явления, наблюдавшиеся между сроками (за 1-3 часа до срока); квадратными скобками обозначены град или гололедные отложения с указанием их диаметра в мм.
Облачность - указаны через наклонную черту общая и нижняя облачность в баллах и высота нижней границы облаков в метрах; квадратными скобками обозначены формы облаков: Ci - перистые, Cs - перисто-слоистые, Cc - перисто-кучевые, Ac - высококучевые, As - высокослоистые, Sc - слоисто-кучевые, Ns - слоисто-дождевые, Cu - кучевые, Cb - кучево-дождевые. Подробнее классификацию облаков см. в Атласе облаков (PDF).
T - Температура воздуха - температура, измеренная на высоте 2 м над землей.
Td - Температура точки росы - температура, при понижении до которой содержащийся в воздухе водяной пар достигнет насыщения.
f - Относительная влажность воздуха - влажноcть воздуха, измеренная на высоте 2 м над землей.
Te - Эффективная температура - температура, которую ощущает одетый по сезону человек в тени. Характеристика душности погоды. При расчете учитывается влияние влажности воздуха и скорости ветра на теплоощущения человека.
Tes - Эффективная температура на солнце - температура, которую ощущает человек, с поправкой на солнечный нагрев. Характеристика знойности погоды. Зависит от высоты солнца над горизонтом, облачности и скорости ветра. Ночью, в пасмурную погоду, а также при ветре 12 м/с и более поправка равна нулю.
P - Атмосферное давление - приведенное к уровню моря атмосферное давление.
Po - Атмосферное давление - измеренное на уровне метеостанции атмосферное давление.
Tmin - Минимальная температура - минимум температуры воздуха на высоте 2 м над землей.
Tmax - Максимальная температура - максимум температуры воздуха на высоте 2 м над землей.
R - Количество осадков - Количество выпавших осадков за период времени, мм. При наведении курсора мыши на число - период времени, за который выпало указанное количество осадков.
R24 - Количество осадков - Количество выпавших осадков за 24 часа, мм.
S - Снежный покров - Высота снежного покрова, см. При наведении курсора мыши на число - состояние снежного покрова и степень покрытия местности в баллах.